Logansport, IN

1:24 PM EST on February 21, 2017 (GMT -0500)
Logansport Municipal

Weather History for KGGP - November, 2013

Change the Weather History Date:

Sunday, November 17, 2013

  Actual Average Record
Temperature  
Mean Temperature 53 °F -  
Max Temperature 62 °F 49 °F 71 °F (2016)
Min Temperature 44 °F 32 °F 12 °F (2014)
Degree Days  
Heating Degree Days 12    
Growing Degree Days 3 (Base 50)    
Moisture  
Dew Point 52 °F    
Average Humidity 85    
Maximum Humidity 94    
Minimum Humidity 67    
Precipitation  
Precipitation 0.40 in - - ()
Sea Level Pressure  
Sea Level Pressure 29.59 in    
Wind  
Wind Speed 19 mph (SSW)    
Max Wind Speed 36 mph    
Max Gust Speed 56 mph    
Visibility 9 miles    
Events Rain    
Averages and records for this station are not official NWS values.
T = Trace of Precipitation, MM = Missing Value Source: NWS Daily Summary

Daily Weather History Graph

Daily Weather History Graph

Search for Another Location

Airport or City:

Trip Planner

Search our weather history database for the weather conditions in past years. The results will help you decide how hot, cold, wet, or windy it might be!

Date:

Astronomy

Nov. 17, 2013 Rise Set
Actual Time 7:34 AM EST 5:25 PM EST
Civil Twilight 7:05 AM EST 5:55 PM EST
Nautical Twilight 6:32 AM EST 6:28 PM EST
Astronomical Twilight 5:59 AM EST 7:00 PM EST
Moon 5:42 PM EST (11/17) 7:28 AM EST (11/17)
Length of Visible Light 10h 49m
Length of Day
9h 50m
Full, 100% of the Moon is Illuminated
Nov 17
Full
Nov 25
Last Quarter
Dec 2
New
Dec 9
First Quarter
Dec 17
Full

Hourly Weather History & Observations

Time (EST) Temp. Windchill Dew Point Humidity Pressure Visibility Wind Dir Wind Speed Gust Speed Precip Events Conditions
12:15 AM 59.0 °F - 55.4 °F 88% 29.74 in 7.0 mi South 15.0 mph - 0.01 in   Drizzle
12:35 AM 59.0 °F - 55.4 °F 88% 29.74 in 7.0 mi South 12.7 mph - 0.01 in   Overcast
12:55 AM 59.0 °F - 55.4 °F 88% 29.71 in 5.0 mi South 11.5 mph - 0.02 in Rain Light Rain
1:15 AM 59.0 °F - 55.4 °F 88% 29.70 in 5.0 mi South 11.5 mph - 0.04 in Rain Light Rain
1:35 AM 59.0 °F - 57.2 °F 94% 29.70 in 7.0 mi South 16.1 mph - 0.04 in   Drizzle
1:55 AM 59.0 °F - 57.2 °F 94% 29.69 in 7.0 mi South 15.0 mph 20.7 mph 0.04 in Rain Light Rain
2:15 AM 59.0 °F - 57.2 °F 94% 29.70 in 10.0 mi South 18.4 mph 23.0 mph N/A   Overcast
2:35 AM 59.0 °F - 57.2 °F 94% 29.69 in 10.0 mi South 15.0 mph 23.0 mph N/A   Overcast
2:55 AM 59.0 °F - 55.4 °F 88% 29.69 in 10.0 mi South 13.8 mph - N/A   Mostly Cloudy
3:15 AM 59.0 °F - 55.4 °F 88% 29.68 in 10.0 mi South 15.0 mph - N/A   Mostly Cloudy
3:35 AM 59.0 °F - 55.4 °F 88% 29.67 in 10.0 mi South 13.8 mph - N/A   Mostly Cloudy
3:55 AM 59.0 °F - 55.4 °F 88% 29.67 in 10.0 mi South 11.5 mph - N/A   Overcast
4:15 AM 59.0 °F - 53.6 °F 82% 29.68 in 10.0 mi South 15.0 mph - N/A   Overcast
4:35 AM 57.2 °F - 53.6 °F 88% 29.68 in 10.0 mi South 16.1 mph - N/A   Mostly Cloudy
4:55 AM 57.2 °F - 53.6 °F 88% 29.68 in 10.0 mi South 17.3 mph 24.2 mph N/A   Mostly Cloudy
5:15 AM 57.2 °F - 53.6 °F 88% 29.68 in 10.0 mi South 15.0 mph - N/A Rain Light Rain
5:35 AM 57.2 °F - 55.4 °F 94% 29.66 in 10.0 mi South 16.1 mph 19.6 mph 0.05 in Rain Light Rain
5:55 AM 59.0 °F - 55.4 °F 88% 29.66 in 10.0 mi South 15.0 mph 21.9 mph 0.05 in   Overcast
6:15 AM 59.0 °F - 55.4 °F 88% 29.66 in 10.0 mi South 15.0 mph 24.2 mph N/A   Overcast
6:35 AM 59.0 °F - 55.4 °F 88% 29.65 in 10.0 mi South 13.8 mph - N/A Rain Light Rain
6:55 AM 59.0 °F - 55.4 °F 88% 29.64 in 10.0 mi South 16.1 mph 21.9 mph N/A   Overcast
7:15 AM 59.0 °F - 55.4 °F 88% 29.63 in 10.0 mi South 16.1 mph - N/A   Overcast
7:35 AM 59.0 °F - 55.4 °F 88% 29.63 in 4.0 mi South 20.7 mph 26.5 mph 0.15 in Rain Heavy Rain
7:55 AM 59.0 °F - 55.4 °F 88% 29.62 in 10.0 mi South 15.0 mph - 0.16 in   Overcast
8:15 AM 59.0 °F - 55.4 °F 88% 29.62 in 10.0 mi South 18.4 mph 23.0 mph N/A   Overcast
8:35 AM 59.0 °F - 55.4 °F 88% 29.61 in 10.0 mi South 19.6 mph - N/A   Overcast
8:55 AM 60.8 °F - 57.2 °F 88% 29.60 in 10.0 mi South 19.6 mph 26.5 mph N/A   Overcast
9:15 AM 60.8 °F - 57.2 °F 88% 29.61 in 10.0 mi South 23.0 mph 26.5 mph N/A   Overcast
9:35 AM 60.8 °F - 57.2 °F 88% 29.60 in 10.0 mi South 23.0 mph 27.6 mph N/A   Overcast
9:55 AM 60.8 °F - 57.2 °F 88% 29.60 in 10.0 mi South 24.2 mph 29.9 mph N/A   Overcast
10:15 AM 60.8 °F - 57.2 °F 88% 29.59 in 10.0 mi South 20.7 mph 26.5 mph N/A   Overcast
10:35 AM 60.8 °F - 57.2 °F 88% 29.60 in 10.0 mi South 21.9 mph 29.9 mph N/A   Overcast
10:55 AM 60.8 °F - 59.0 °F 94% 29.59 in 10.0 mi South 20.7 mph 31.1 mph N/A   Overcast
11:15 AM 60.8 °F - 59.0 °F 94% 29.58 in 5.0 mi South 25.3 mph 29.9 mph N/A   Drizzle
11:35 AM 60.8 °F - 59.0 °F 94% 29.55 in 5.0 mi South 26.5 mph 31.1 mph N/A   Light Drizzle
11:55 AM 60.8 °F - 59.0 °F 94% 29.52 in 10.0 mi South 25.3 mph 33.4 mph N/A   Overcast
12:15 PM 62.6 °F - 59.0 °F 88% 29.51 in 10.0 mi South 21.9 mph 29.9 mph N/A   Overcast
12:35 PM 60.8 °F - 59.0 °F 94% 29.49 in 3.0 mi South 23.0 mph 29.9 mph 0.12 in Rain Light Rain
12:55 PM 62.6 °F - 59.0 °F 88% 29.46 in 7.0 mi South 25.3 mph 31.1 mph 0.12 in   Drizzle
1:15 PM 62.6 °F - 59.0 °F 88% 29.44 in 10.0 mi South 25.3 mph 33.4 mph N/A   Drizzle
1:35 PM 62.6 °F - 59.0 °F 88% 29.41 in 7.0 mi South 21.9 mph 29.9 mph N/A   Overcast
1:55 PM 62.6 °F - 60.8 °F 94% 29.40 in 10.0 mi South 25.3 mph 33.4 mph N/A   Overcast
2:15 PM 62.6 °F - 60.8 °F 94% 29.38 in 10.0 mi South 24.2 mph 32.2 mph N/A   Overcast
2:35 PM 62.6 °F - 60.8 °F 94% 29.36 in 10.0 mi South 24.2 mph 31.1 mph N/A   Overcast
2:55 PM 62.6 °F - 60.8 °F 94% 29.34 in 10.0 mi South 25.3 mph 32.2 mph N/A   Overcast
3:15 PM 62.6 °F - 60.8 °F 94% 29.34 in 10.0 mi South 21.9 mph 28.8 mph 0.01 in Rain Rain
3:35 PM 55.4 °F - 53.6 °F 94% 29.36 in 10.0 mi SSW 15.0 mph - N/A Rain Light Rain
3:55 PM 57.2 °F - 53.6 °F 88% 29.36 in 10.0 mi SW 21.9 mph 28.8 mph N/A   Overcast
4:15 PM 59.0 °F - 53.6 °F 82% 29.36 in 10.0 mi SW 27.6 mph 33.4 mph N/A   Mostly Cloudy
4:35 PM 59.0 °F - 53.6 °F 82% 29.40 in 10.0 mi WSW 31.1 mph 42.6 mph N/A   Mostly Cloudy
4:55 PM 59.0 °F - 48.2 °F 67% 29.41 in 10.0 mi West 35.7 mph 56.4 mph N/A   Mostly Cloudy
5:15 PM 55.4 °F - 46.4 °F 72% 29.44 in 10.0 mi West 35.7 mph 49.5 mph N/A   Scattered Clouds
5:35 PM 53.6 °F - 44.6 °F 72% 29.47 in 10.0 mi West 25.3 mph 50.6 mph N/A   Scattered Clouds
5:55 PM 51.8 °F - 42.8 °F 71% 29.50 in 10.0 mi West 35.7 mph 47.2 mph N/A   Scattered Clouds
6:15 PM 51.8 °F - 41.0 °F 67% 29.52 in 10.0 mi West 33.4 mph 47.2 mph N/A   Clear
6:35 PM 50.0 °F - 41.0 °F 71% 29.55 in 10.0 mi West 27.6 mph 40.3 mph N/A   Scattered Clouds
6:55 PM 50.0 °F - 41.0 °F 71% 29.57 in 10.0 mi West 28.8 mph 44.9 mph N/A   Mostly Cloudy
7:15 PM 50.0 °F - 41.0 °F 71% 29.58 in 10.0 mi West 34.5 mph 42.6 mph N/A   Mostly Cloudy
7:35 PM 50.0 °F - 41.0 °F 71% 29.60 in 10.0 mi West 26.5 mph 40.3 mph N/A   Overcast
7:55 PM 50.0 °F - 41.0 °F 71% 29.62 in 10.0 mi West 31.1 mph 41.4 mph N/A   Overcast
8:15 PM 46.4 °F 37.9 °F 39.2 °F 76% 29.64 in 10.0 mi West 25.3 mph 46.0 mph N/A   Overcast
8:35 PM 46.4 °F 38.7 °F 39.2 °F 76% 29.65 in 10.0 mi West 20.7 mph 34.5 mph N/A   Mostly Cloudy
8:55 PM 46.4 °F 38.7 °F 39.2 °F 76% 29.66 in 10.0 mi West 20.7 mph 33.4 mph N/A   Mostly Cloudy
9:15 PM 46.4 °F 37.9 °F 39.2 °F 76% 29.66 in 10.0 mi West 25.3 mph 31.1 mph N/A   Mostly Cloudy
9:35 PM 46.4 °F 39.0 °F 39.2 °F 76% 29.68 in 10.0 mi West 19.6 mph 34.5 mph N/A   Overcast
9:55 PM 46.4 °F 39.2 °F 39.2 °F 76% 29.69 in 10.0 mi West 18.4 mph 34.5 mph N/A   Mostly Cloudy
10:15 PM 46.4 °F 39.5 °F 39.2 °F 76% 29.70 in 10.0 mi West 17.3 mph 27.6 mph N/A   Overcast
10:35 PM 46.4 °F 38.7 °F 39.2 °F 76% 29.71 in 10.0 mi West 20.7 mph 28.8 mph N/A   Overcast
10:55 PM 46.4 °F 39.0 °F 37.4 °F 71% 29.73 in 10.0 mi West 19.6 mph 28.8 mph N/A   Overcast
11:15 PM 44.6 °F 38.1 °F 37.4 °F 76% 29.74 in 10.0 mi West 13.8 mph 27.6 mph N/A   Overcast
11:35 PM 44.6 °F 37.2 °F 37.4 °F 76% 29.74 in 10.0 mi West 17.3 mph 26.5 mph N/A   Mostly Cloudy
11:55 PM 44.6 °F 37.4 °F 37.4 °F 76% 29.75 in 10.0 mi West 16.1 mph 24.2 mph N/A   Mostly Cloudy